Location: Bouysse
(45.3674°N, 1.8947°E)
Time: 02:48:22
(UTC+00:00)

Cosmos 1408 Rocket - Pass Details

Date: 07 June 2020
Orbit: 602 x 630 km, 82.6° (Epoch: 09 July)

Event Time Altitude Azimuth Distance (km) Brightness Sun altitude
Exits shadow 03:00:10 - 174° (S) 2,732 6.5 -9.5°
Reaches altitude 10° 03:02:07 10° 170° (S) 1,944 5.8 -9.2°
Maximum altitude 03:06:18 53° 94° (E) 746 4.3 -8.7°
Drops below altitude 10° 03:10:30 10° 18° (NNE) 1,956 7.3 -8.2°
Sets 03:12:45 0° 14° (NNE) 2,865 8.1 -7.9°
